Location: St. Louis
(38.6270°N, 90.1994°W)
Time: 12:28:33
(UTC-06:00)

Transit 2A - Visible Passes

Search period start: 06 December 2021 00:00
Search period end: 16 December 2021 00:00
Orbit: 591 x 967 km, 66.7° (Epoch: 05 December)

Date Brightness Start Highest point End Pass type
(mag) Time Alt. Az. Time Alt. Az. Time Alt. Az.
07 Dec 8.6 06:25:42 10° N 06:29:30 16° NE 06:33:13 10° ENE visible
08 Dec 8.8 05:52:23 10° NNE 05:54:49 12° NE 05:57:13 10° ENE visible
10 Dec 8.0 06:25:17 10° N 06:30:46 29° NE 06:36:00 10° ESE visible
11 Dec 8.4 05:51:24 10° N 05:56:14 22° NE 06:00:55 10° E visible
12 Dec 8.7 05:17:40 10° N 05:21:38 17° NE 05:25:31 10° E visible
13 Dec 8.8 04:44:15 10° N 04:46:58 13° NE 04:49:39 10° ENE visible
13 Dec 7.0 06:25:25 10° NNW 06:31:41 57° ENE 06:37:32 10° SE visible
14 Dec 7.5 05:51:20 10° NNW 05:57:19 42° NE 06:02:57 10° ESE visible
15 Dec 7.9 05:17:19 10° N 05:22:53 31° NE 05:28:09 10° ESE visible
